Regional Weather Roundup
Issued by NWS

Home | Current Version | Previous Version | Graphics & Text | Print | Product List | Glossary On
Versions: 1 2 3 4 5 6 7 8 9 10 11 12 13 14 15 16 17 18 19 20 21 22 23 24 25 26 27 28 29 30 31 32 33 34 35 36 37 38 39 40 41 42 43 44 45 46 47 48 49 50
000
ASUS43 KMKX 271821
RWRWI

WISCONSIN REGIONAL WEATHER ROUNDUP
NATIONAL WEATHER SERVICE MILWAUKEE/SULLIVAN WI
1200 PM CST SAT DEC 27 2014

NOTE: "FAIR" INDICATES FEW OR NO CLOUDS BELOW 12,000 FEET WITH NO
SIGNIFICANT WEATHER AND/OR OBSTRUCTIONS TO VISIBILITY.

WIZ001-002-006>008-014>016-023>028-271900-
NORTHWEST WISCONSIN

CITY           SKY/WX    TMP DP  RH WIND       PRES   REMARKS
SUPERIOR ARPT  SUNNY     24  13  64 W8        30.02F WCI  15
6HR MIN TEMP:  21; 6HR MAX TEMP:  24;

ASHLAND        CLOUDY    26  21  81 NW8       29.98F WCI  18
6HR MIN TEMP:  25; 6HR MAX TEMP:  27; 6HR PCP:  0.09;

HAYWARD        CLOUDY    23  18  81 VRB6      29.98S WCI  16
6HR MIN TEMP:  23; 6HR MAX TEMP:  26; 6HR PCP:  0.05;

SIREN          MOSUNNY   23  14  68 NW10      30.04S WCI  12
6HR MIN TEMP:  21; 6HR MAX TEMP:  24;

CUMBERLAND     CLOUDY    23  18  80 NW13      29.99S WCI  11
RICE LAKE      CLOUDY    25  19  78 W9        30.01S WCI  16
6HR MIN TEMP:  24; 6HR MAX TEMP:  27;

CHETEK         CLOUDY    26  20  80 W6        29.99F WCI  19
6HR MIN TEMP:  24; 6HR MAX TEMP:  28; 6HR PCP:  0.06;

LADYSMITH      CLOUDY    28  23  84 NW12G18   29.96R WCI  17
6HR MIN TEMP:  28; 6HR MAX TEMP:  29;

EAU CLAIRE     CLOUDY    26  19  74 NW13      29.99S WCI  15
6HR MIN TEMP:  26; 6HR MAX TEMP:  29; 6HR PCP:  0.05;

MENOMONIE      CLOUDY    27  20  77 W13       30.02S WCI  16
6HR MIN TEMP:  26; 6HR MAX TEMP:  29;

NEW RICHMOND   CLOUDY    23  18  82 NW13      30.05S WCI  11
6HR MIN TEMP:  22; 6HR MAX TEMP:  25;

OSCEOLA        CLOUDY    23  20  88 NW8       30.08F WCI  14
6HR MIN TEMP:  23; 6HR MAX TEMP:  25;

$$

WIZ003>005-009-010-017-018-271900-
NORTH CENTRAL WISCONSIN

CITY           SKY/WX    TMP DP  RH WIND       PRES   REMARKS
MANITOWISH WTR CLOUDY    29  27  92 N8        29.85F FOG     WCI  21
ARBOR VITAE    LGT SNOW  32  29  89 N9        29.84S WCI  24
6HR MIN TEMP:  29; 6HR MAX TEMP:  32; 6HR PCP:  0.04;

WOODRUFF       LGT SNOW  32  29  89 N9        29.84S WCI  24
6HR MIN TEMP:  29; 6HR MAX TEMP:  32; 6HR PCP:  0.04;

RHINELANDER    LGT SNOW  29  26  89 N8        29.82S FOG     WCI  21
6HR MIN TEMP:  28; 6HR MAX TEMP:  29; 6HR PCP:  0.22;

EAGLE RIVER    LGT SNOW  29  28  94 N8        29.82S WCI  21
6HR MIN TEMP:  28; 6HR MAX TEMP:  29;

LAND O LAKES   LGT SNOW  29  27  91 N8        29.84S WCI  21
PHILLIPS       CLOUDY    29  26  88 N10G16    29.88S WCI  19
6HR MIN TEMP:  28; 6HR MAX TEMP:  29; 6HR PCP:  0.05;

TOMAHAWK       LGT SNOW  30  27  88 CALM      29.85R
6HR MIN TEMP:  28; 6HR MAX TEMP:  30; 6HR PCP:  0.19;

MEDFORD        CLOUDY    30  26  85 NW14      29.86S WCI  20
6HR MIN TEMP:  28; 6HR MAX TEMP:  30; 6HR PCP:  0.05;

MERRILL        FLURRIES  31  28  90 N9        29.84S WCI  23
6HR MIN TEMP:  30; 6HR MAX TEMP:  31; 6HR PCP:  0.10;

$$

WIZ029-030-035-036-043>047-271900-
CENTRAL WISCONSIN

CITY           SKY/WX    TMP DP  RH WIND       PRES   REMARKS
WAUSAU         CLOUDY    31  28  89 NW9       29.83R WCI  23
6HR MIN TEMP:  31; 6HR MAX TEMP:  32; 6HR PCP:  0.21;

MOSINEE        SNOWSHWR  30  30 100 NW9       29.85R FOG     WCI  22
MARSHFIELD     CLOUDY    32  27  81 NW17      29.87R WCI  21
6HR MIN TEMP:  31; 6HR MAX TEMP:  33; 6HR PCP:  0.07;

STEVENS POINT  MIX PCPN  31  30  96 NW8       29.84R WCI  23
6HR MIN TEMP:  31; 6HR MAX TEMP:  31; 6HR PCP:  0.14;

WAUPACA        CLOUDY    36  35  96 SW14G24   29.83R WCI  27
6HR MIN TEMP:  35; 6HR MAX TEMP:  37; 6HR PCP:  0.05;

WAUTOMA        CLOUDY    34  34 100 W13       29.87R WCI  25
6HR MIN TEMP:  34; 6HR MAX TEMP:  37; 6HR PCP:  0.09;

WISC RAPIDS    CLOUDY    32  28  85 W14       29.89R WCI  22
6HR MIN TEMP:  32; 6HR MAX TEMP:  33; 6HR PCP:  0.13;

CAMP DOUGLAS   CLOUDY    31  31 100 W17G25    29.93R WCI  20
6HR MIN TEMP:  31; 6HR MAX TEMP:  34; 6HR PCP:  0.03;

$$

WIZ011>013-019>022-031-037>040-048>050-271900-
NORTHEAST WISCONSIN

CITY           SKY/WX    TMP DP  RH WIND       PRES   REMARKS
ANTIGO         LGT SNOW  30  28  95 N9        29.80S WCI  21
6HR MIN TEMP:  30; 6HR MAX TEMP:  31; 6HR PCP:  0.17;

SHAWANO        LGT SNOW  34  33  96 CALM      29.80R
6HR MIN TEMP:  34; 6HR MAX TEMP:  34; 6HR PCP:  0.18;

OCONTO         CLOUDY    33  33 100 W3        29.79R
6HR MIN TEMP:  32; 6HR MAX TEMP:  34; 6HR PCP:  0.18;

STURGEON BAY   CLOUDY    34  30  86 NW8       29.79R WCI  27
6HR MIN TEMP:  34; 6HR MAX TEMP:  41;

GREEN BAY      CLOUDY    36  36 100 W13       29.80F FOG     WCI  27
6HR MIN TEMP:  34; 6HR MAX TEMP:  36; 6HR PCP:  0.19;

MANITOWOC      CLOUDY    41  39  93 W17G29    29.81R
6HR MIN TEMP:  37; 6HR MAX TEMP:  45; 6HR PCP:  0.03;

APPLETON       CLOUDY    36  36 100 W15G24    29.82R WCI  26
CLINTONVILLE   LGT RAIN  34  32  93 W6        29.81R WCI  29
OSHKOSH        CLOUDY    38  34  85 W12G24    29.83R WCI  30
6HR MIN TEMP:  35; 6HR MAX TEMP:  44; 6HR PCP:  0.05;

$$

WIZ032>034-041-042-053>061-271900-
SOUTHWEST WISCONSIN

CITY           SKY/WX    TMP DP  RH WIND       PRES   REMARKS
LA CROSSE      CLOUDY    31  26  82 NW15      30.00S WCI  20
6HR MIN TEMP:  31; 6HR MAX TEMP:  33; 6HR PCP: TRACE;

SPARTA         CLOUDY    30  27  89 NW10G17   29.98S WCI  21
6HR MIN TEMP:  30; 6HR MAX TEMP:  33; 6HR PCP:  0.01;

VIROQUA        CLOUDY    29  29 100 NW15G21   29.95F WCI  18
6HR MIN TEMP:  29; 6HR MAX TEMP:  34;

BOSCOBEL       CLOUDY    33  27  78 W13G22    30.00R WCI  24
6HR MIN TEMP:  33; 6HR MAX TEMP:  38;

PRAIRIE DU CHI CLOUDY    31  26  81 W20G25    30.02S WCI  19
6HR MIN TEMP:  31; 6HR MAX TEMP:  37;

PLATTEVILLE    CLOUDY    32  29  88 W17G26    30.00S WCI  21
6HR MIN TEMP:  32; 6HR MAX TEMP:  41;

$$

WIZ056-057-062-063-064-067-068-271900-
SOUTH CENTRAL WISCONSIN

CITY           SKY/WX    TMP DP  RH WIND       PRES   REMARKS
REEDSBURG      CLOUDY    32  30  91 W17G26    29.92S WCI  21
6HR MIN TEMP:  32; 6HR MAX TEMP:  37; 6HR PCP:  0.05;

BARABOO/DELLS  CLOUDY    33  30  91 W16G23    29.90S WCI  22
6HR MIN TEMP:  33; 6HR MAX TEMP:  37; 6HR PCP:  0.03;

LONE ROCK      CLOUDY    36  29  75 W15       29.96R WCI  27
6HR MIN TEMP:  36; 6HR MAX TEMP:  42; 6HR PCP:  0.03;

MINERAL POINT  CLOUDY    32  32 100 W18       29.94F WCI  20
MADISON        CLOUDY    36  31  82 VRB7G18   29.91F WCI  30
6HR MIN TEMP:  36; 6HR MAX TEMP:  46; 6HR PCP:  0.03;

MIDDLETON      CLOUDY    37  31  80 W20G26    29.92F WCI  26
6HR MIN TEMP:  37; 6HR MAX TEMP:  46; 6HR PCP:  0.02;

WATERTOWN      CLOUDY    36  33  89 SW16G23   29.90F WCI  26
6HR MIN TEMP:  36; 6HR MAX TEMP:  46;

MONROE         CLOUDY    34  32  93 W17G30    29.95S WCI  23
JANESVILLE     CLOUDY    37  30  75 W23G29    29.95S WCI  26
$$

WIZ051-052-058>065-066-070>072-271900-
SOUTHEAST WISCONSIN

CITY           SKY/WX    TMP DP  RH WIND       PRES   REMARKS
MILWAUKEE      CLOUDY    41  34  76 W17G35    29.89S
6HR MIN TEMP:  42; 6HR MAX TEMP:  50; 6HR PCP:  0.01;

WAUKESHA       CLOUDY    36  32  87 W21G29    29.91R WCI  24
MILWAUKEE/TIMM CLOUDY    39  32  75 W24G35    29.89R WCI  28
RACINE         CLOUDY    43  35  73 W16G28    29.91R
6HR MIN TEMP:  43; 6HR MAX TEMP:  50; 6HR PCP: TRACE;

BURLINGTON     CLOUDY    36  32  84 W15G25    29.91F WCI  27
6HR MIN TEMP:  36; 6HR MAX TEMP:  47;

KENOSHA        CLOUDY    41  35  79 W26G32    29.91R
6HR MIN TEMP:  41; 6HR MAX TEMP:  49; 6HR PCP: TRACE;

FOND DU LAC    CLOUDY    39  34  82 SW17G29   29.85R WCI  30
6HR MIN TEMP:  37; 6HR MAX TEMP:  46; 6HR PCP:  0.04;

SHEBOYGAN      CLOUDY    43  38  82 W23G35    29.82R
6HR MIN TEMP:  38; 6HR MAX TEMP:  47; 6HR PCP:  0.03;

WEST BEND      CLOUDY    37  32  81 W17G30    29.86R WCI  28
JUNEAU         CLOUDY    36  33  87 SW18G25   29.89R WCI  26
6HR MIN TEMP:  36; 6HR MAX TEMP:  45; 6HR PCP:  0.01;

$$

LSZ147-162-271900-
LAKE SUPERIOR

STATION/POSITION TIME  TEMP    WIND        PRES    WAVE
                       AIR SEA DIR/SP/G            HT/PER
                 (UTC) (F)     (DEG/KT/KT) (MB)    (FT/S)
DEVILS ISLAND    1800   24     310/ 12/ 13 1016.1F
PORT WING        1700   24     280/  9/ 12 1016.6
SAXON HARBOR     1700   28     320/ 14/ 17 1014.9F
$$

LMZ867-665-643>646-271900-
LAKE MICHIGAN

STATION/POSITION TIME  TEMP    WIND        PRES    WAVE
                       AIR SEA DIR/SP/G            HT/PER
                 (UTC) (F)     (DEG/KT/KT) (MB)    (FT/S)


USA.gov is the U.S. government's official web portal to all federal, state and local government web resources and services.